リニア彗星

C/1998 M5 ( LINEAR )

English version
Home page
Updated on May 3, 2000

---------------------------------------------------------------------

・ プロフィール

発見日 1998年6月30日
発見光度 15.9等
発見者 Lincoln Laboratory Near-Earth Asteroid Research project

・ 写真集

・ 軌道要素

   The following improved orbital elements by Kenji Muraoka, are 
  from 1150 observations 1998 June 30 to 1999 Dec. 27, perturbations 
  by 8 Planets, Moon and 3 minor planets were taken into account.
   The mean residual is +/- 0.64 arc seconds.

      Epoch  =  1999 Jan  = 2451200.5
          T  =  1999 Jan. 24.57126       +/- 0.00014 (m.e.) TT
       Peri. =  101.28447                +/- 0.00005
       Node  =  333.37676                +/- 0.00003   (2000.0)
       Incl. =   82.22886                +/- 0.00004
          q  =    1.7422802              +/- 0.0000009 AU
          e  =    0.9960389              +/- 0.0000025
        1/a  =   +0.0022735              +/- 0.0000014 1/AU
        ( P  =   9225 years )
  orig. 1/a  =   +0.0005144 
  fut.  1/a  =   +0.0026141 

・ 星図

・ 光度変化

        m1 = 6.0 + 5 logΔ + 10.0 log r

---------------------------------------------------------------------

軌道要素は村岡健治氏の計算によるものです。
星図は StellaNavigator Ver.2.0 for Windows (アストロアーツ 編著 / アスキー出版局刊) で作成したものです。
光度グラフはComet for Windowsで作成したものです。

---------------------------------------------------------------------

Copyright(C) Seiichi Yoshida (comet@aerith.net). All rights reserved.